| time (UTC) | temp F | wind direction | speed MPH | gust MPH | rain 1hr in | rain 24hr in | rain mn in | humidity % | barometer mb |
| 20260901081025 | 80 | 0 | 0.0 | 2.0 | 0.00 | 0.00 | 0.00 | 57 | 1015.1 |
| 20260901080523 | 80 | 0 | 0.0 | 6.0 | 0.00 | 0.00 | 0.00 | 56 | 1015.1 |
| 20260901080049 | 81 | 0 | 0.0 | 6.0 | 0.00 | 0.00 | 0.00 | 55 | 1015.2 |
| 20260901075524 | 81 | 0 | 0.0 | 4.0 | 0.00 | 0.00 | 0.00 | 55 | 1015.2 |
| 20260901075027 | 81 | 0 | 0.0 | 6.0 | 0.00 | 0.00 | 0.00 | 54 | 1015.2 |
| 20260901074548 | 82 | 0 | 0.0 | 6.0 | 0.00 | 0.00 | 0.00 | 54 | 1015.1 |
| 20260901074025 | 82 | 129 | 0.0 | 6.0 | 0.00 | 0.00 | 0.00 | 54 | 1015.2 |
| 20260901073523 | 82 | 0 | 1.0 | 7.0 | 0.00 | 0.00 | 0.00 | 53 | 1015.2 |
| 20260901073046 | 82 | 178 | 1.0 | 7.0 | 0.00 | 0.00 | 0.00 | 53 | 1015.2 |
| 20260901072528 | 82 | 136 | 0.0 | 3.0 | 0.00 | 0.00 | 0.00 | 53 | 1015.1 |
| 20260901072023 | 82 | 0 | 0.0 | 5.0 | 0.00 | 0.00 | 0.00 | 53 | 1015.2 |
| 20260901071552 | 82 | 0 | 0.0 | 5.0 | 0.00 | 0.00 | 0.00 | 53 | 1015.2 |
| 20260901071024 | 82 | 0 | 0.0 | 6.0 | 0.00 | 0.00 | 0.00 | 52 | 1015.2 |
| 20260901070525 | 82 | 142 | 0.0 | 6.0 | 0.00 | 0.00 | 0.00 | 52 | 1015.3 |
| 20260901065525 | 82 | 184 | 1.0 | 11.0 | 0.00 | 0.00 | 0.00 | 52 | 1015.2 |
| 20260901065027 | 83 | 253 | 0.0 | 9.0 | 0.00 | 0.00 | 0.00 | 52 | 1015.3 |
| 20260901064546 | 83 | 0 | 0.0 | 9.0 | 0.00 | 0.00 | 0.00 | 51 | 1015.2 |
| 20260901064025 | 83 | 0 | 0.0 | 9.0 | 0.00 | 0.00 | 0.00 | 51 | 1015.3 |
| 20260901063526 | 83 | 181 | 1.0 | 8.0 | 0.00 | 0.00 | 0.00 | 51 | 1015.3 |
| 20260901063050 | 83 | 167 | 2.0 | 13.0 | 0.00 | 0.00 | 0.00 | 51 | 1015.2 |
| 20260901062524 | 82 | 222 | 3.0 | 13.0 | 0.00 | 0.00 | 0.00 | 51 | 1015.2 |
| 20260901062028 | 82 | 184 | 3.0 | 9.0 | 0.00 | 0.00 | 0.00 | 53 | 1015.3 |
| 20260901061551 | 81 | 165 | 2.0 | 9.0 | 0.00 | 0.00 | 0.00 | 54 | 1015.3 |
| 20260901061024 | 81 | 159 | 2.0 | 6.0 | 0.00 | 0.00 | 0.00 | 54 | 1015.2 |
| 20260901060524 | 81 | 160 | 2.0 | 6.0 | 0.00 | 0.00 | 0.00 | 54 | 1015.4 |
| 20260901060044 | 81 | 173 | 2.0 | 6.0 | 0.00 | 0.00 | 0.00 | 54 | 1015.3 |
| 20260901055525 | 81 | 163 | 1.0 | 5.0 | 0.00 | 0.00 | 0.00 | 55 | 1015.4 |
| 20260901055024 | 81 | 186 | 1.0 | 5.0 | 0.00 | 0.00 | 0.00 | 54 | 1015.4 |
| 20260901054549 | 81 | 167 | 0.0 | 5.0 | 0.00 | 0.00 | 0.00 | 55 | 1015.3 |
| 20260901054025 | 81 | 0 | 0.0 | 3.0 | 0.00 | 0.00 | 0.00 | 55 | 1015.3 |
| 20260901053526 | 81 | 0 | 0.0 | 4.0 | 0.00 | 0.00 | 0.00 | 54 | 1015.3 |
| 20260901053053 | 81 | 0 | 0.0 | 4.0 | 0.00 | 0.00 | 0.00 | 54 | 1015.3 |
| 20260901052523 | 81 | 163 | 0.0 | 5.0 | 0.00 | 0.00 | 0.00 | 54 | 1015.3 |
| 20260901052024 | 81 | 0 | 0.0 | 5.0 | 0.00 | 0.00 | 0.00 | 54 | 1015.3 |
| 20260901051544 | 81 | 0 | 0.0 | 3.0 | 0.00 | 0.00 | 0.00 | 54 | 1015.3 |
| 20260901051026 | 81 | 0 | 0.0 | 4.0 | 0.00 | 0.00 | 0.00 | 54 | 1015.4 |
| 20260901050525 | 82 | 0 | 0.0 | 4.0 | 0.00 | 0.00 | 0.00 | 53 | 1015.4 |
| 20260901050053 | 82 | 171 | 0.0 | 4.0 | 0.00 | 0.00 | 0.00 | 53 | 1015.4 |
| 20260901045523 | 82 | 172 | 0.0 | 2.0 | 0.00 | 0.00 | 0.00 | 53 | 1015.4 |
| 20260901045022 | 82 | 0 | 0.0 | 2.0 | 0.00 | 0.00 | 0.00 | 52 | 1015.4 |
| 20260901044556 | 83 | 0 | 0.0 | 2.0 | 0.00 | 0.00 | 0.00 | 52 | 1015.4 |
| 20260901044025 | 83 | 0 | 0.0 | 3.0 | 0.00 | 0.00 | 0.00 | 51 | 1015.4 |
| 20260901043527 | 83 | 0 | 0.0 | 3.0 | 0.00 | 0.00 | 0.00 | 51 | 1015.4 |
| 20260901043048 | 83 | 0 | 0.0 | 3.0 | 0.00 | 0.00 | 0.00 | 51 | 1015.3 |
| 20260901042527 | 84 | 0 | 0.0 | 3.0 | 0.00 | 0.00 | 0.00 | 50 | 1015.3 |
| 20260901042023 | 84 | 0 | 0.0 | 2.0 | 0.00 | 0.00 | 0.00 | 50 | 1015.2 |
| 20260901041544 | 84 | 0 | 0.0 | 5.0 | 0.00 | 0.00 | 0.00 | 50 | 1015.2 |
| 20260901041025 | 84 | 0 | 0.0 | 5.0 | 0.00 | 0.00 | 0.00 | 49 | 1015.2 |
| 20260901040524 | 85 | 0 | 1.0 | 4.0 | 0.00 | 0.00 | 0.00 | 49 | 1015.2 |
| 20260901040053 | 85 | 0 | 0.0 | 7.0 | 0.00 | 0.00 | 0.00 | 49 | 1015.1 |
| 20260901035524 | 85 | 0 | 1.0 | 7.0 | 0.00 | 0.00 | 0.00 | 48 | 1015.1 |
| 20260901035024 | 85 | 144 | 2.0 | 7.0 | 0.00 | 0.00 | 0.00 | 48 | 1015.1 |
| 20260901034549 | 86 | 0 | 1.0 | 6.0 | 0.00 | 0.00 | 0.00 | 48 | 1015.1 |
| 20260901034028 | 86 | 153 | 1.0 | 6.0 | 0.00 | 0.00 | 0.00 | 48 | 1015.1 |
| 20260901033524 | 86 | 176 | 1.0 | 6.0 | 0.00 | 0.00 | 0.00 | 47 | 1015.0 |
| 20260901033100 | 86 | 0 | 1.0 | 9.0 | 0.00 | 0.00 | 0.00 | 47 | 1014.9 |
| 20260901032526 | 86 | 0 | 2.0 | 9.0 | 0.00 | 0.00 | 0.00 | 48 | 1014.8 |
| 20260901032027 | 86 | 157 | 1.0 | 7.0 | 0.00 | 0.00 | 0.00 | 48 | 1014.8 |
| 20260901031545 | 87 | 0 | 2.0 | 8.0 | 0.00 | 0.00 | 0.00 | 47 | 1014.8 |
| 20260901031023 | 87 | 161 | 1.0 | 8.0 | 0.00 | 0.00 | 0.00 | 47 | 1014.8 |
| 20260901030524 | 87 | 177 | 0.0 | 8.0 | 0.00 | 0.00 | 0.00 | 47 | 1014.7 |
| 20260901030101 | 87 | 165 | 1.0 | 8.0 | 0.00 | 0.00 | 0.00 | 46 | 1014.7 |
| 20260901025525 | 87 | 174 | 0.0 | 9.0 | 0.00 | 0.00 | 0.00 | 46 | 1014.8 |
| 20260901025024 | 87 | 139 | 2.0 | 9.0 | 0.00 | 0.00 | 0.00 | 47 | 1014.8 |
| 20260901024551 | 87 | 157 | 0.0 | 6.0 | 0.00 | 0.00 | 0.00 | 47 | 1014.8 |
| 20260901024025 | 87 | 0 | 0.0 | 5.0 | 0.00 | 0.00 | 0.00 | 47 | 1014.7 |
| 20260901023536 | 87 | 162 | 0.0 | 5.0 | 0.00 | 0.00 | 0.00 | 48 | 1014.6 |
| 20260901023049 | 87 | 0 | 1.0 | 5.0 | 0.00 | 0.00 | 0.00 | 48 | 1014.6 |
| 20260901022524 | 88 | 153 | 1.0 | 5.0 | 0.00 | 0.00 | 0.00 | 48 | 1014.6 |
| 20260901022025 | 88 | 164 | 1.0 | 6.0 | 0.00 | 0.00 | 0.00 | 49 | 1014.5 |
| 20260901021558 | 88 | 121 | 1.0 | 6.0 | 0.00 | 0.00 | 0.00 | 48 | 1014.4 |
| 20260901021028 | 88 | 120 | 2.0 | 6.0 | 0.00 | 0.00 | 0.00 | 49 | 1014.4 |
| 20260901020523 | 88 | 164 | 1.0 | 8.0 | 0.00 | 0.00 | 0.00 | 48 | 1014.3 |
| 20260901020045 | 89 | 152 | 1.0 | 9.0 | 0.00 | 0.00 | 0.00 | 49 | 1014.3 |
| 20260901015522 | 89 | 0 | 2.0 | 9.0 | 0.00 | 0.00 | 0.00 | 49 | 1014.3 |
| 20260901015025 | 89 | 0 | 1.0 | 4.0 | 0.00 | 0.00 | 0.00 | 49 | 1014.3 |
| 20260901014544 | 89 | 0 | 0.0 | 4.0 | 0.00 | 0.00 | 0.00 | 48 | 1014.2 |
| 20260901014024 | 89 | 0 | 0.0 | 4.0 | 0.00 | 0.00 | 0.00 | 48 | 1014.2 |
| 20260901013523 | 89 | 0 | 0.0 | 3.0 | 0.00 | 0.00 | 0.00 | 48 | 1014.1 |
| 20260901013055 | 90 | 0 | 0.0 | 3.0 | 0.00 | 0.00 | 0.00 | 47 | 1014.1 |
| 20260901012523 | 90 | 0 | 0.0 | 5.0 | 0.00 | 0.00 | 0.00 | 47 | 1014.0 |
| 20260901012023 | 90 | 0 | 0.0 | 5.0 | 0.00 | 0.00 | 0.00 | 47 | 1014.0 |
| 20260901011608 | 90 | 0 | 0.0 | 2.0 | 0.00 | 0.00 | 0.00 | 47 | 1013.9 |
| 20260901011026 | 91 | 0 | 0.0 | 5.0 | 0.00 | 0.00 | 0.00 | 47 | 1013.8 |
| 20260901010527 | 91 | 0 | 0.0 | 5.0 | 0.00 | 0.00 | 0.00 | 46 | 1013.8 |
| 20260901010046 | 91 | 0 | 0.0 | 4.0 | 0.00 | 0.00 | 0.00 | 46 | 1013.8 |
| 20260901005524 | 92 | 0 | 0.0 | 2.0 | 0.00 | 0.00 | 0.00 | 45 | 1013.8 |
| 20260901005027 | 92 | 0 | 0.0 | 3.0 | 0.00 | 0.00 | 0.00 | 45 | 1013.8 |
| 20260901004546 | 93 | 0 | 0.0 | 5.0 | 0.00 | 0.00 | 0.00 | 44 | 1013.7 |
| 20260901004026 | 93 | 142 | 0.0 | 5.0 | 0.00 | 0.00 | 0.00 | 44 | 1013.7 |
| 20260901003524 | 94 | 0 | 1.0 | 5.0 | 0.00 | 0.00 | 0.00 | 43 | 1013.7 |
| 20260901003052 | 94 | 153 | 0.0 | 3.0 | 0.00 | 0.00 | 0.00 | 43 | 1013.7 |
| 20260901002523 | 94 | 0 | 0.0 | 3.0 | 0.00 | 0.00 | 0.00 | 43 | 1013.7 |
| 20260901002027 | 95 | 0 | 1.0 | 3.0 | 0.00 | 0.00 | 0.00 | 42 | 1013.7 |
| 20260901001548 | 95 | 0 | 0.0 | 5.0 | 0.00 | 0.00 | 0.00 | 42 | 1013.8 |
| 20260901001027 | 95 | 0 | 1.0 | 5.0 | 0.00 | 0.00 | 0.00 | 41 | 1013.7 |
| 20260901000522 | 96 | 182 | 0.0 | 4.0 | 0.00 | 0.00 | 0.00 | 41 | 1013.7 |
| 20260901000045 | 96 | 0 | 0.0 | 5.0 | 0.00 | 0.00 | 0.00 | 41 | 1013.7 |
| 20260831235524 | 96 | 163 | 0.0 | 6.0 | 0.00 | 0.00 | 0.00 | 40 | 1013.8 |
| 20260831235025 | 96 | 0 | 1.0 | 8.0 | 0.00 | 0.00 | 0.00 | 40 | 1013.8 |
| 20260831234547 | 96 | 0 | 1.0 | 9.0 | 0.00 | 0.00 | 0.00 | 40 | 1013.8 |
| 20260831234026 | 96 | 199 | 2.0 | 10.0 | 0.00 | 0.00 | 0.00 | 39 | 1013.8 |
| 20260831233524 | 96 | 0 | 3.0 | 10.0 | 0.00 | 0.00 | 0.00 | 39 | 1013.8 |
| 20260831233048 | 97 | 153 | 4.0 | 10.0 | 0.00 | 0.00 | 0.00 | 39 | 1013.8 |
| 20260831232523 | 97 | 184 | 4.0 | 10.0 | 0.00 | 0.00 | 0.00 | 39 | 1013.7 |
| 20260831232024 | 97 | 144 | 3.0 | 10.0 | 0.00 | 0.00 | 0.00 | 40 | 1013.7 |
| 20260831231551 | 97 | 169 | 3.0 | 8.0 | 0.00 | 0.00 | 0.00 | 39 | 1013.8 |
| 20260831231024 | 97 | 0 | 2.0 | 10.0 | 0.00 | 0.00 | 0.00 | 39 | 1013.8 |
| 20260831230527 | 97 | 158 | 3.0 | 10.0 | 0.00 | 0.00 | 0.00 | 39 | 1013.8 |
| 20260831230053 | 97 | 178 | 2.0 | 8.0 | 0.00 | 0.00 | 0.00 | 39 | 1013.8 |
| 20260831225522 | 97 | 177 | 2.0 | 11.0 | 0.00 | 0.00 | 0.00 | 39 | 1013.7 |
| 20260831225027 | 98 | 148 | 3.0 | 11.0 | 0.00 | 0.00 | 0.00 | 38 | 1013.7 |
| 20260831224548 | 98 | 146 | 3.0 | 10.0 | 0.00 | 0.00 | 0.00 | 37 | 1013.6 |
| 20260831224025 | 99 | 0 | 1.0 | 10.0 | 0.00 | 0.00 | 0.00 | 37 | 1013.6 |
| 20260831223528 | 99 | 196 | 3.0 | 10.0 | 0.00 | 0.00 | 0.00 | 35 | 1013.6 |
| 20260831223047 | 99 | 175 | 3.0 | 15.0 | 0.00 | 0.00 | 0.00 | 35 | 1013.6 |
| 20260831222529 | 99 | 258 | 3.0 | 15.0 | 0.00 | 0.00 | 0.00 | 36 | 1013.6 |
| 20260831222026 | 99 | 163 | 3.0 | 12.0 | 0.00 | 0.00 | 0.00 | 35 | 1013.7 |
| 20260831221603 | 99 | 175 | 2.0 | 12.0 | 0.00 | 0.00 | 0.00 | 36 | 1013.7 |
| 20260831221025 | 99 | 186 | 1.0 | 11.0 | 0.00 | 0.00 | 0.00 | 37 | 1013.7 |
| 20260831220525 | 99 | 188 | 4.0 | 11.0 | 0.00 | 0.00 | 0.00 | 35 | 1013.8 |
| 20260831220047 | 100 | 140 | 3.0 | 9.0 | 0.00 | 0.00 | 0.00 | 35 | 1013.8 |
| 20260831215528 | 100 | 198 | 1.0 | 11.0 | 0.00 | 0.00 | 0.00 | 35 | 1013.8 |
| 20260831215023 | 100 | 176 | 5.0 | 11.0 | 0.00 | 0.00 | 0.00 | 36 | 1013.8 |
| 20260831214554 | 100 | 187 | 3.0 | 9.0 | 0.00 | 0.00 | 0.00 | 36 | 1013.8 |
| 20260831214025 | 101 | 200 | 2.0 | 7.0 | 0.00 | 0.00 | 0.00 | 36 | 1013.8 |
| 20260831213528 | 101 | 0 | 1.0 | 9.0 | 0.00 | 0.00 | 0.00 | 36 | 1013.7 |
| 20260831213045 | 100 | 275 | 1.0 | 11.0 | 0.00 | 0.00 | 0.00 | 36 | 1013.7 |
| 20260831212524 | 100 | 313 | 1.0 | 11.0 | 0.00 | 0.00 | 0.00 | 36 | 1013.8 |
| 20260831212028 | 101 | 285 | 2.0 | 10.0 | 0.00 | 0.00 | 0.00 | 35 | 1013.8 |
| 20260831211552 | 101 | 235 | 3.0 | 8.0 | 0.00 | 0.00 | 0.00 | 35 | 1013.8 |
| 20260831211022 | 100 | 316 | 1.0 | 8.0 | 0.00 | 0.00 | 0.00 | 35 | 1013.9 |
| 20260831210530 | 100 | 131 | 1.0 | 8.0 | 0.00 | 0.00 | 0.00 | 35 | 1013.8 |
| 20260831210048 | 100 | 324 | 2.0 | 12.0 | 0.00 | 0.00 | 0.00 | 35 | 1014.0 |
| 20260831205524 | 101 | 303 | 3.0 | 12.0 | 0.00 | 0.00 | 0.00 | 36 | 1014.1 |
| 20260831205026 | 101 | 128 | 2.0 | 6.0 | 0.00 | 0.00 | 0.00 | 36 | 1014.1 |
| 20260831204546 | 101 | 0 | 0.0 | 12.0 | 0.00 | 0.00 | 0.00 | 36 | 1014.1 |
| 20260831204026 | 101 | 319 | 1.0 | 12.0 | 0.00 | 0.00 | 0.00 | 35 | 1014.2 |
| 20260831203525 | 101 | 5 | 1.0 | 8.0 | 0.00 | 0.00 | 0.00 | 36 | 1014.1 |
| 20260831203108 | 100 | 113 | 3.0 | 8.0 | 0.00 | 0.00 | 0.00 | 35 | 1014.1 |
| 20260831202529 | 100 | 0 | 2.0 | 7.0 | 0.00 | 0.00 | 0.00 | 37 | 1014.2 |
| 20260831202029 | 100 | 297 | 2.0 | 7.0 | 0.00 | 0.00 | 0.00 | 37 | 1014.2 |
| 20260831201553 | 100 | 244 | 3.0 | 7.0 | 0.00 | 0.00 | 0.00 | 36 | 1014.3 |
| 20260831201024 | 100 | 0 | 2.0 | 9.0 | 0.00 | 0.00 | 0.00 | 36 | 1014.3 |
| 20260831200529 | 100 | 266 | 3.0 | 9.0 | 0.00 | 0.00 | 0.00 | 36 | 1014.3 |
| 20260831200053 | 100 | 176 | 2.0 | 9.0 | 0.00 | 0.00 | 0.00 | 37 | 1014.3 |
| 20260831195525 | 99 | 203 | 2.0 | 9.0 | 0.00 | 0.00 | 0.00 | 37 | 1014.4 |
| 20260831195027 | 99 | 259 | 2.0 | 8.0 | 0.00 | 0.00 | 0.00 | 38 | 1014.3 |
| 20260831194601 | 99 | 295 | 2.0 | 9.0 | 0.00 | 0.00 | 0.00 | 37 | 1014.3 |
| 20260831194027 | 99 | 257 | 1.0 | 9.0 | 0.00 | 0.00 | 0.00 | 39 | 1014.3 |
| 20260831193524 | 99 | 171 | 2.0 | 8.0 | 0.00 | 0.00 | 0.00 | 37 | 1014.3 |
| 20260831193049 | 99 | 178 | 1.0 | 8.0 | 0.00 | 0.00 | 0.00 | 37 | 1014.4 |
| 20260831192525 | 99 | 0 | 2.0 | 8.0 | 0.00 | 0.00 | 0.00 | 36 | 1014.4 |
| 20260831192024 | 99 | 262 | 3.0 | 9.0 | 0.00 | 0.00 | 0.00 | 36 | 1014.4 |
| 20260831191550 | 99 | 5 | 1.0 | 9.0 | 0.00 | 0.00 | 0.00 | 37 | 1014.5 |
| 20260831191027 | 99 | 178 | 2.0 | 15.0 | 0.00 | 0.00 | 0.00 | 38 | 1014.6 |
| 20260831190531 | 99 | 170 | 3.0 | 15.0 | 0.00 | 0.00 | 0.00 | 37 | 1014.5 |
| 20260831190057 | 99 | 162 | 1.0 | 11.0 | 0.00 | 0.00 | 0.00 | 38 | 1014.5 |
| 20260831185527 | 98 | 276 | 3.0 | 11.0 | 0.00 | 0.00 | 0.00 | 40 | 1014.6 |
| 20260831185022 | 98 | 254 | 2.0 | 11.0 | 0.00 | 0.00 | 0.00 | 39 | 1014.6 |
| 20260831184552 | 97 | 188 | 4.0 | 11.0 | 0.00 | 0.00 | 0.00 | 38 | 1014.5 |
| 20260831184024 | 98 | 175 | 2.0 | 10.0 | 0.00 | 0.00 | 0.00 | 39 | 1014.6 |
| 20260831183529 | 97 | 261 | 2.0 | 15.0 | 0.00 | 0.00 | 0.00 | 40 | 1014.6 |
| 20260831183046 | 96 | 309 | 3.0 | 15.0 | 0.00 | 0.00 | 0.00 | 40 | 1014.7 |
| 20260831182525 | 96 | 181 | 6.0 | 12.0 | 0.00 | 0.00 | 0.00 | 39 | 1014.6 |
| 20260831182029 | 96 | 0 | 3.0 | 10.0 | 0.00 | 0.00 | 0.00 | 42 | 1014.7 |
| 20260831181552 | 96 | 315 | 2.0 | 11.0 | 0.00 | 0.00 | 0.00 | 41 | 1014.8 |
| 20260831181027 | 96 | 203 | 2.0 | 11.0 | 0.00 | 0.00 | 0.00 | 42 | 1014.9 |
| 20260831180530 | 96 | 265 | 2.0 | 10.0 | 0.00 | 0.00 | 0.00 | 42 | 1015.0 |
| 20260831180100 | 95 | 174 | 2.0 | 10.0 | 0.00 | 0.00 | 0.00 | 43 | 1015.0 |
| 20260831175525 | 95 | 186 | 3.0 | 10.0 | 0.00 | 0.00 | 0.00 | 42 | 1015.1 |
| 20260831175027 | 96 | 175 | 2.0 | 9.0 | 0.00 | 0.00 | 0.00 | 43 | 1015.2 |
| 20260831174547 | 95 | 159 | 2.0 | 9.0 | 0.00 | 0.00 | 0.00 | 43 | 1015.2 |
| 20260831174025 | 95 | 207 | 2.0 | 11.0 | 0.00 | 0.00 | 0.00 | 44 | 1015.4 |
| 20260831173524 | 94 | 322 | 3.0 | 14.0 | 0.00 | 0.00 | 0.00 | 45 | 1015.3 |
| 20260831173050 | 93 | 159 | 1.0 | 14.0 | 0.00 | 0.00 | 0.00 | 47 | 1015.3 |
| 20260831172526 | 93 | 179 | 4.0 | 14.0 | 0.00 | 0.00 | 0.00 | 46 | 1015.3 |
| 20260831172026 | 93 | 150 | 3.0 | 15.0 | 0.00 | 0.00 | 0.00 | 44 | 1015.3 |
| 20260831171543 | 93 | 170 | 3.0 | 15.0 | 0.00 | 0.00 | 0.00 | 46 | 1015.4 |
| 20260831171024 | 93 | 265 | 4.0 | 8.0 | 0.00 | 0.00 | 0.00 | 45 | 1015.4 |
| 20260831170532 | 93 | 84 | 1.0 | 10.0 | 0.00 | 0.00 | 0.00 | 46 | 1015.5 |
| 20260831170049 | 93 | 150 | 1.0 | 10.0 | 0.00 | 0.00 | 0.00 | 45 | 1015.6 |
| 20260831165524 | 92 | 276 | 4.0 | 10.0 | 0.00 | 0.00 | 0.00 | 46 | 1015.6 |
| 20260831165026 | 92 | 0 | 2.0 | 9.0 | 0.00 | 0.00 | 0.00 | 46 | 1015.6 |
| 20260831164547 | 92 | 204 | 3.0 | 12.0 | 0.00 | 0.00 | 0.00 | 46 | 1015.7 |
| 20260831164023 | 92 | 0 | 2.0 | 13.0 | 0.00 | 0.00 | 0.00 | 47 | 1015.6 |
| 20260831163528 | 92 | 0 | 2.0 | 13.0 | 0.00 | 0.00 | 0.00 | 46 | 1015.5 |
| 20260831163043 | 91 | 114 | 3.0 | 11.0 | 0.00 | 0.00 | 0.00 | 47 | 1015.5 |
| 20260831162530 | 91 | 200 | 2.0 | 10.0 | 0.00 | 0.00 | 0.00 | 47 | 1015.5 |
| 20260831162027 | 91 | 170 | 1.0 | 16.0 | 0.00 | 0.00 | 0.00 | 49 | 1015.6 |
| 20260831161550 | 89 | 165 | 5.0 | 16.0 | 0.00 | 0.00 | 0.00 | 49 | 1015.6 |
| 20260831161026 | 90 | 170 | 2.0 | 9.0 | 0.00 | 0.00 | 0.00 | 50 | 1015.6 |
| 20260831160524 | 90 | 350 | 1.0 | 10.0 | 0.00 | 0.00 | 0.00 | 50 | 1015.7 |
| 20260831160047 | 89 | 169 | 3.0 | 10.0 | 0.00 | 0.00 | 0.00 | 50 | 1015.7 |
| 20260831155526 | 88 | 281 | 2.0 | 9.0 | 0.00 | 0.00 | 0.00 | 52 | 1015.8 |
| 20260831155028 | 88 | 0 | 3.0 | 9.0 | 0.00 | 0.00 | 0.00 | 53 | 1015.9 |
| 20260831154619 | 88 | 0 | 1.0 | 6.0 | 0.00 | 0.00 | 0.00 | 52 | 1015.9 |
| 20260831154028 | 87 | 90 | 1.0 | 8.0 | 0.00 | 0.00 | 0.00 | 54 | 1015.9 |
| 20260831153532 | 86 | 132 | 2.0 | 8.0 | 0.00 | 0.00 | 0.00 | 54 | 1015.8 |
| 20260831153053 | 86 | 219 | 1.0 | 5.0 | 0.00 | 0.00 | 0.00 | 54 | 1015.9 |
| 20260831152528 | 86 | 0 | 1.0 | 5.0 | 0.00 | 0.00 | 0.00 | 55 | 1015.8 |
| 20260831152029 | 86 | 0 | 1.0 | 5.0 | 0.00 | 0.00 | 0.00 | 54 | 1015.7 |
| 20260831151549 | 86 | 0 | 1.0 | 8.0 | 0.00 | 0.00 | 0.00 | 56 | 1015.7 |
| 20260831151028 | 85 | 0 | 1.0 | 8.0 | 0.00 | 0.00 | 0.00 | 56 | 1015.8 |
| 20260831150530 | 86 | 163 | 1.0 | 8.0 | 0.00 | 0.00 | 0.00 | 55 | 1015.8 |
| 20260831150048 | 86 | 345 | 2.0 | 9.0 | 0.00 | 0.00 | 0.00 | 56 | 1015.8 |
| 20260831145528 | 85 | 180 | 1.0 | 9.0 | 0.00 | 0.00 | 0.00 | 58 | 1015.8 |
| 20260831145029 | 84 | 225 | 2.0 | 10.0 | 0.00 | 0.00 | 0.00 | 57 | 1015.7 |
| 20260831144552 | 84 | 218 | 3.0 | 10.0 | 0.00 | 0.00 | 0.00 | 59 | 1015.7 |
| 20260831144024 | 84 | 348 | 2.0 | 10.0 | 0.00 | 0.00 | 0.00 | 59 | 1015.7 |
| 20260831143526 | 83 | 0 | 2.0 | 10.0 | 0.00 | 0.00 | 0.00 | 60 | 1015.7 |
| 20260831143054 | 83 | 170 | 0.0 | 6.0 | 0.00 | 0.00 | 0.00 | 61 | 1015.8 |
| 20260831142526 | 82 | 269 | 2.0 | 9.0 | 0.00 | 0.00 | 0.00 | 61 | 1015.8 |
| 20260831142028 | 82 | 306 | 0.0 | 9.0 | 0.00 | 0.00 | 0.00 | 62 | 1015.9 |
| 20260831141549 | 81 | 42 | 2.0 | 13.0 | 0.00 | 0.00 | 0.00 | 63 | 1015.9 |
| 20260831141025 | 80 | 190 | 1.0 | 13.0 | 0.00 | 0.00 | 0.00 | 64 | 1015.9 |
| 20260831140527 | 79 | 178 | 3.0 | 12.0 | 0.00 | 0.00 | 0.00 | 65 | 1015.9 |
| 20260831140048 | 79 | 159 | 4.0 | 9.0 | 0.00 | 0.00 | 0.00 | 66 | 1015.9 |
| 20260831135525 | 78 | 159 | 3.0 | 9.0 | 0.00 | 0.00 | 0.00 | 67 | 1015.8 |
| 20260831135024 | 78 | 184 | 2.0 | 8.0 | 0.00 | 0.00 | 0.00 | 67 | 1016.0 |
| 20260831134546 | 78 | 131 | 3.0 | 8.0 | 0.00 | 0.00 | 0.00 | 66 | 1015.9 |
| 20260831134031 | 78 | 217 | 1.0 | 9.0 | 0.00 | 0.00 | 0.00 | 66 | 1015.8 |
| 20260831133528 | 78 | 298 | 3.0 | 9.0 | 0.00 | 0.00 | 0.00 | 66 | 1015.7 |
| 20260831133055 | 78 | 0 | 2.0 | 9.0 | 0.00 | 0.00 | 0.00 | 67 | 1015.7 |
| 20260831132525 | 77 | 161 | 1.0 | 8.0 | 0.00 | 0.00 | 0.00 | 68 | 1015.7 |
| 20260831132030 | 77 | 170 | 3.0 | 8.0 | 0.00 | 0.00 | 0.00 | 67 | 1015.8 |
| 20260831131553 | 77 | 171 | 2.0 | 9.0 | 0.00 | 0.00 | 0.00 | 67 | 1015.9 |
| 20260831131027 | 77 | 0 | 2.0 | 9.0 | 0.00 | 0.00 | 0.00 | 67 | 1015.9 |
| 20260831130524 | 77 | 0 | 1.0 | 7.0 | 0.00 | 0.00 | 0.00 | 67 | 1015.8 |
| 20260831130052 | 77 | 129 | 2.0 | 7.0 | 0.00 | 0.00 | 0.00 | 67 | 1015.8 |
| 20260831125523 | 77 | 0 | 1.0 | 7.0 | 0.00 | 0.00 | 0.00 | 67 | 1015.7 |
| 20260831125028 | 77 | 138 | 1.0 | 11.0 | 0.00 | 0.00 | 0.00 | 67 | 1015.7 |
| 20260831124549 | 77 | 161 | 2.0 | 11.0 | 0.00 | 0.00 | 0.00 | 67 | 1015.5 |
| 20260831124024 | 76 | 188 | 3.0 | 10.0 | 0.00 | 0.00 | 0.00 | 67 | 1015.4 |
| 20260831123525 | 76 | 182 | 2.0 | 6.0 | 0.00 | 0.00 | 0.00 | 68 | 1015.4 |
| 20260831123050 | 76 | 0 | 2.0 | 6.0 | 0.00 | 0.00 | 0.00 | 68 | 1015.5 |
| 20260831122527 | 76 | 192 | 0.0 | 5.0 | 0.00 | 0.00 | 0.00 | 68 | 1015.4 |
| 20260831122025 | 76 | 0 | 1.0 | 7.0 | 0.00 | 0.00 | 0.00 | 68 | 1015.3 |
| 20260831121545 | 75 | 0 | 1.0 | 7.0 | 0.00 | 0.00 | 0.00 | 68 | 1015.2 |
| 20260831121024 | 75 | 0 | 1.0 | 7.0 | 0.00 | 0.00 | 0.00 | 68 | 1015.2 |
| 20260831120525 | 75 | 0 | 1.0 | 7.0 | 0.00 | 0.00 | 0.00 | 68 | 1015.1 |
| 20260831120053 | 75 | 157 | 0.0 | 6.0 | 0.00 | 0.00 | 0.00 | 68 | 1014.9 |
| 20260831115531 | 75 | 0 | 1.0 | 6.0 | 0.00 | 0.00 | 0.00 | 68 | 1014.9 |
| 20260831115027 | 75 | 0 | 0.0 | 7.0 | 0.00 | 0.00 | 0.00 | 67 | 1014.7 |
| 20260831114544 | 75 | 196 | 3.0 | 7.0 | 0.00 | 0.00 | 0.00 | 67 | 1014.5 |
| 20260831114025 | 76 | 167 | 3.0 | 7.0 | 0.00 | 0.00 | 0.00 | 67 | 1014.5 |
| 20260831113525 | 76 | 143 | 3.0 | 8.0 | 0.00 | 0.00 | 0.00 | 66 | 1014.4 |
| 20260831113050 | 76 | 182 | 2.0 | 9.0 | 0.00 | 0.00 | 0.00 | 65 | 1014.4 |
| 20260831112524 | 76 | 187 | 4.0 | 9.0 | 0.00 | 0.00 | 0.00 | 65 | 1014.4 |
| 20260831112024 | 76 | 0 | 2.0 | 7.0 | 0.00 | 0.00 | 0.00 | 65 | 1014.4 |
| 20260831111554 | 77 | 196 | 2.0 | 9.0 | 0.00 | 0.00 | 0.00 | 65 | 1014.5 |
| 20260831111023 | 76 | 209 | 2.0 | 9.0 | 0.00 | 0.00 | 0.00 | 65 | 1014.5 |
| 20260831110524 | 76 | 178 | 3.0 | 9.0 | 0.00 | 0.00 | 0.00 | 65 | 1014.5 |
| 20260831110049 | 76 | 169 | 3.0 | 9.0 | 0.00 | 0.00 | 0.00 | 65 | 1014.5 |
| 20260831105526 | 76 | 169 | 2.0 | 9.0 | 0.00 | 0.00 | 0.00 | 65 | 1014.4 |
| 20260831105026 | 76 | 0 | 1.0 | 5.0 | 0.00 | 0.00 | 0.00 | 65 | 1014.4 |
| 20260831104544 | 76 | 0 | 0.0 | 3.0 | 0.00 | 0.00 | 0.00 | 65 | 1014.3 |
| 20260831104026 | 77 | 174 | 0.0 | 3.0 | 0.00 | 0.00 | 0.00 | 64 | 1014.2 |
| 20260831103525 | 77 | 177 | 0.0 | 2.0 | 0.00 | 0.00 | 0.00 | 64 | 1014.2 |
| 20260831103041 | 77 | 0 | 0.0 | 6.0 | 0.00 | 0.00 | 0.00 | 63 | 1014.2 |
| 20260831102526 | 77 | 0 | 0.0 | 6.0 | 0.00 | 0.00 | 0.00 | 63 | 1014.1 |
| 20260831102028 | 77 | 183 | 2.0 | 7.0 | 0.00 | 0.00 | 0.00 | 62 | 1013.9 |
| 20260831101556 | 78 | 156 | 2.0 | 9.0 | 0.00 | 0.00 | 0.00 | 62 | 1013.8 |
| 20260831101022 | 78 | 0 | 3.0 | 10.0 | 0.00 | 0.00 | 0.00 | 62 | 1013.7 |
| 20260831100524 | 78 | 148 | 3.0 | 10.0 | 0.00 | 0.00 | 0.00 | 61 | 1013.6 |
| 20260831100047 | 78 | 151 | 3.0 | 9.0 | 0.00 | 0.00 | 0.00 | 61 | 1013.6 |
| 20260831095526 | 78 | 179 | 2.0 | 9.0 | 0.00 | 0.00 | 0.00 | 61 | 1013.6 |
| 20260831095023 | 79 | 186 | 3.0 | 14.0 | 0.00 | 0.00 | 0.00 | 60 | 1013.5 |
| 20260831094544 | 79 | 176 | 3.0 | 14.0 | 0.00 | 0.00 | 0.00 | 60 | 1013.5 |
| 20260831094025 | 79 | 169 | 4.0 | 11.0 | 0.00 | 0.00 | 0.00 | 59 | 1013.4 |
| 20260831093523 | 79 | 163 | 2.0 | 12.0 | 0.00 | 0.00 | 0.00 | 59 | 1013.3 |
| 20260831093050 | 79 | 178 | 6.0 | 12.0 | 0.00 | 0.00 | 0.00 | 58 | 1013.2 |
| 20260831092525 | 79 | 0 | 4.0 | 11.0 | 0.00 | 0.00 | 0.00 | 58 | 1013.2 |
| 20260831092025 | 79 | 180 | 4.0 | 10.0 | 0.00 | 0.00 | 0.00 | 58 | 1013.3 |
| 20260831091559 | 80 | 188 | 3.0 | 10.0 | 0.00 | 0.00 | 0.00 | 58 | 1013.4 |
| 20260831091028 | 80 | 173 | 3.0 | 8.0 | 0.00 | 0.00 | 0.00 | 57 | 1013.3 |
| 20260831090524 | 80 | 154 | 3.0 | 14.0 | 0.00 | 0.00 | 0.00 | 57 | 1013.3 |
| 20260831090051 | 80 | 190 | 4.0 | 14.0 | 0.00 | 0.00 | 0.00 | 57 | 1013.3 |
| 20260831085523 | 80 | 181 | 3.0 | 10.0 | 0.00 | 0.00 | 0.00 | 56 | 1013.1 |
| 20260831085024 | 80 | 196 | 1.0 | 9.0 | 0.00 | 0.00 | 0.00 | 56 | 1013.2 |
| 20260831084547 | 81 | 154 | 2.0 | 9.0 | 0.00 | 0.00 | 0.00 | 56 | 1013.1 |
| 20260831084026 | 81 | 0 | 2.0 | 11.0 | 0.00 | 0.00 | 0.00 | 55 | 1013.1 |
| 20260831083523 | 81 | 167 | 3.0 | 11.0 | 0.00 | 0.00 | 0.00 | 55 | 1013.1 |
| 20260831083057 | 81 | 192 | 4.0 | 11.0 | 0.00 | 0.00 | 0.00 | 55 | 1013.1 |
| 20260831082524 | 81 | 191 | 5.0 | 11.0 | 0.00 | 0.00 | 0.00 | 55 | 1013.1 |
| 20260831082024 | 81 | 190 | 3.0 | 12.0 | 0.00 | 0.00 | 0.00 | 55 | 1013.2 |
| 20260831081558 | 81 | 173 | 3.0 | 12.0 | 0.00 | 0.00 | 0.00 | 54 | 1013.1 |